Погода в Ломовом

Россия / Архангельская область     64°00′27″N   40°39′28″E
темп.,
°C
ветер,
м/с
пор.,
м/с
влажн.,
%
обл.,
%
осадки,
мм/ч
давл.,
гПа
погр.,
м
18 июня, пт
пт1800:00+9ююз376188 0.0 1021121
03:00+10ююз4136053 0.0 1020314
06:00+13ююз41263100 0.0 1017398
09:00+19зюз51054100 0.1 1016733
12:00+23зюз5942100 0.0 10151976
15:00+23зсз4840100 0.0 10142124
18:00+23з383699 0.0 10141429
21:00+17зюз2249100 0.0 101318
19 июня, сб
сб1900:00+16ю2346100 0.0 101266
03:00+15юз4137086 0.0 1010357
06:00+18зюз5146599 0.1 1008706
09:00+22з7146164 0.1 10091600
12:00+22зсз712453 0.1 10121888
15:00+19ссз711475 0.1 10151300
18:00+16ссз57500 0.0 10191150
21:00+13ссз2468100 0.0 1020121
20 июня, вс
вс2000:00+9вюв228671 0.0 102137
03:00+10юв2869100 0.0 1022296
06:00+10юв4106795 0.0 1021367
09:00+9вюв498899 0.6 1020325
12:00+20ююв58440 0.0 10161070
15:00+27ююв48412 0.0 10121676
18:00+22юв256099 0.1 1012102
21:00+21юз2466100 0.1 101171
21 июня, пн
пн2100:00+19юз31170100 0.0 1011243
03:00+17з2680100 0.0 1012128
06:00+19з388540 0.4 1013331
09:00+19ссз348479 0.4 1014493
12:00+22сз486196 0.0 10161203
15:00+21ссз565370 0.0 10181011
18:00+19ссз465296 0.0 1019717
21:00+14ссз2671100 0.0 1020220
22 июня, вт
вт2200:00+10ссв239119 0.0 102156
03:00+9в239531 0.0 102258
06:00+14юв237057 0.0 1022291
09:00+20юв225290 0.0 1022566
12:00+26ююв33410 0.0 1020881
15:00+29ю34395 0.0 10191443
18:00+30ююв35400 0.0 10181679
21:00+24ююв413623 0.2 1018398